This demonstration page uses our WeatherBlox Daily Observations layout. Learn more.

Left ArrowRight Arrow

Hourly Observations for September 28, 2016

Temp ( °F °C ) Dew Point ( °F °C ) Humidity (%) Winds ( mph kmh ) Pressure ( in mb ) Visibility ( mi km ) Precip ( " mm )
12:51 am 00:51 Clear 68 20 51 10.6 55 55 ESE 9 15 29.96 1014 10 16.0934 0 0
1:51 am 01:51 Clear 66 18.9 52 11.1 61 61 S 8 13 29.96 1014 10 16.0934 0 0
2:51 am 02:51 Mostly Cloudy with Light Rain 66 18.9 56 13.3 70 70 S 5 7 29.99 1016 8 12.87472 0 0.0254
3:51 am 03:51 Mostly Cloudy 64 17.8 58 14.4 81 81 SSE 9 15 29.96 1015 10 16.0934 0.04 1.016
4:51 am 04:51 Mostly Cloudy 64 17.8 58 14.4 81 81 S 15 24 30 1016 10 16.0934 0 0.0254
5:10 am 05:10 Cloudy with Light Rain 64 17.8 57 13.9 78 78 E 16 26 29.97 1015 10 16.0934 0.01 0.254
5:51 am 05:51 Mostly Cloudy 62 16.7 58 14.4 86 86 SSE 5 7 30 1016 10 16.0934 0.02 0.508
6:51 am 06:51 Mostly Cloudy 65 18.3 56 13.3 73 73 SE 8 13 30.01 1016 10 16.0934 0 0.0254
7:51 am 07:51 Mostly Cloudy with Light Rain 65 18.3 56 13.3 73 73 E 13 20 30.05 1018 10 16.0934 0 0.0254
8:51 am 08:51 Cloudy 69 20.6 58 14.4 68 68 SSE 10 17 30.07 1018 10 16.0934 0 0.0254
9:51 am 09:51 Mostly Cloudy 69 20.6 59 15 70 70 SE 8 13 30.04 1017 10 16.0934 0 0
10:51 am 10:51 Mostly Sunny 73 22.8 59 15 62 62 SSE 8 13 30.03 1017 10 16.0934 0 0
11:51 am 11:51 Sunny 78 25.6 59 15 52 52 VRB 3 6 29.99 1016 10 16.0934 0 0
12:51 pm 12:51 Sunny 80 26.7 56 13.3 44 44 SSE 6 9 29.97 1015 10 16.0934 0 0
1:51 pm 13:51 Sunny 80 26.7 58 14.4 47 47 S 8 13 29.95 1014 10 16.0934 0 0
2:51 pm 14:51 Sunny 80 26.7 58 14.4 47 47 SSW 5 7 29.95 1014 10 16.0934 0 0
3:51 pm 15:51 Mostly Cloudy 81 27.2 59 15 47 47 Calm 29.95 1014 10 16.0934 0 0
4:51 pm 16:51 Mostly Sunny 81 27.2 58 14.4 45 45 SSE 3 6 29.94 1014 10 16.0934 0 0
5:51 pm 17:51 Mostly Cloudy 78 25.6 60 15.6 54 54 S 6 9 29.98 1015 10 16.0934 0 0
6:51 pm 18:51 Partly Cloudy 74 23.3 62 16.7 67 67 NE 7 11 29.96 1015 10 16.0934 0 0
7:51 pm 19:51 Clear 73 22.8 63 17.2 71 71 Calm 29.99 1016 10 16.0934 0 0
8:51 pm 20:51 Clear 73 22.8 62 16.7 69 69 N 6 9 29.99 1016 10 16.0934 0 0
9:51 pm 21:51 Clear 70 21.1 63 17.2 79 79 WNW 3 6 30.01 1016 10 16.0934 0 0
10:51 pm 22:51 Clear 70 21.1 62 16.7 76 76 Calm 30.01 1016 10 16.0934 0 0
11:51 pm 23:51 Clear 69 20.6 62 16.7 78 78 E 7 11 30 1016 10 16.0934 0 0

Powered by AerisWeather